Location: Rancho Del Sol Observatory
(38.7214°N, 120.6350°W)
Time: 19:39:20
(UTC-08:00)

Cosmos 2221 Rocket - Visible Passes

Search period start: 21 January 2017 00:00
Search period end: 31 January 2017 00:00
Orbit: 621 x 648 km, 82.5° (Epoch: 21 January)

Date Brightness Start Highest point End Pass type
(mag) Time Alt. Az. Time Alt. Az. Time Alt. Az.
27 Jan 5.8 18:39:24 10° NNE 18:39:34 11° NNE 18:39:34 11° NNE visible
27 Jan 6.5 20:17:08 10° NNW 20:17:08 10° NNW 20:17:08 10° NNW visible
28 Jan 4.7 19:00:59 10° N 19:03:29 29° NNE 19:03:29 29° NNE visible
28 Jan 6.7 20:40:33 10° NW 20:41:07 12° WNW 20:41:07 12° WNW visible
29 Jan 3.6 19:23:03 10° N 19:27:39 84° W 19:32:11 10° S visible
30 Jan 5.0 18:08:20 10° NNE 18:11:27 18° ENE 18:14:33 10° ESE visible
30 Jan 5.0 19:45:33 10° NNW 19:49:47 38° W 19:53:58 10° SSW visible
